Year,Month,Day,Hour,Minute,Value (Times are PST for temperature in C)
2011,04,29,00,00,2.80
2011,04,29,00,01,2.80
2011,04,29,00,02,2.80
2011,04,29,00,03,2.80
2011,04,29,00,04,2.80
2011,04,29,00,05,2.80
2011,04,29,00,06,2.80
2011,04,29,00,07,2.80
2011,04,29,00,08,2.70
2011,04,29,00,09,2.70
2011,04,29,00,10,2.70
2011,04,29,00,11,2.70
2011,04,29,00,12,2.70
2011,04,29,00,13,2.70
2011,04,29,00,14,2.70
2011,04,29,00,15,2.60
2011,04,29,00,16,2.60
2011,04,29,00,17,2.60
2011,04,29,00,18,2.60
2011,04,29,00,19,2.60
2011,04,29,00,20,2.60
2011,04,29,00,21,2.60
2011,04,29,00,22,2.60
2011,04,29,00,23,2.60
2011,04,29,00,24,2.60
2011,04,29,00,25,2.60
2011,04,29,00,26,2.60
2011,04,29,00,27,2.60
2011,04,29,00,28,2.50
2011,04,29,00,29,2.50
2011,04,29,00,30,2.50
2011,04,29,00,31,2.50
2011,04,29,00,32,2.50
2011,04,29,00,33,2.50
2011,04,29,00,34,2.50
2011,04,29,00,35,2.50
2011,04,29,00,36,2.50
2011,04,29,00,37,2.50
2011,04,29,00,38,2.50
2011,04,29,00,39,2.50
2011,04,29,00,40,2.50
2011,04,29,00,41,2.50
2011,04,29,00,42,2.50
2011,04,29,00,43,2.50
2011,04,29,00,44,2.50
2011,04,29,00,45,2.50
2011,04,29,00,46,2.50
2011,04,29,00,47,2.50
2011,04,29,00,48,2.50
2011,04,29,00,49,2.50
2011,04,29,00,50,2.50
2011,04,29,00,51,2.50
2011,04,29,00,52,2.40
2011,04,29,00,53,2.40
2011,04,29,00,54,2.40
2011,04,29,00,55,2.40
2011,04,29,00,56,2.40
2011,04,29,00,57,2.40
2011,04,29,00,58,2.40
2011,04,29,00,59,2.40
2011,04,29,01,00,2.40
2011,04,29,01,01,2.40
2011,04,29,01,02,2.40
2011,04,29,01,03,2.40
2011,04,29,01,04,2.40
2011,04,29,01,05,2.40
2011,04,29,01,06,2.40
2011,04,29,01,07,2.40
2011,04,29,01,08,2.40
2011,04,29,01,09,2.40
2011,04,29,01,10,2.40
2011,04,29,01,11,2.40
2011,04,29,01,12,2.40
2011,04,29,01,13,2.40
2011,04,29,01,14,2.40
2011,04,29,01,15,2.40
2011,04,29,01,16,2.40
2011,04,29,01,17,2.40
2011,04,29,01,18,2.40
2011,04,29,01,19,2.40
2011,04,29,01,20,2.40
2011,04,29,01,21,2.40
2011,04,29,01,22,2.40
2011,04,29,01,23,2.40
2011,04,29,01,24,2.40
2011,04,29,01,25,2.40
2011,04,29,01,26,2.50
2011,04,29,01,27,2.50
2011,04,29,01,28,2.50
2011,04,29,01,29,2.50
2011,04,29,01,30,2.50
2011,04,29,01,31,2.50
2011,04,29,01,32,2.60
2011,04,29,01,33,2.60
2011,04,29,01,34,2.60
2011,04,29,01,35,2.60
2011,04,29,01,36,2.60
2011,04,29,01,37,2.60
2011,04,29,01,38,2.60
2011,04,29,01,39,2.60
2011,04,29,01,40,2.70
2011,04,29,01,41,2.70
2011,04,29,01,42,2.70
2011,04,29,01,43,2.70
2011,04,29,01,44,2.70
2011,04,29,01,45,2.70
2011,04,29,01,46,2.70
2011,04,29,01,47,2.70
2011,04,29,01,48,2.70
2011,04,29,01,49,2.70
2011,04,29,01,50,2.70
2011,04,29,01,51,2.70
2011,04,29,01,52,2.70
2011,04,29,01,53,2.70
2011,04,29,01,54,2.80
2011,04,29,01,55,2.80
2011,04,29,01,56,2.80
2011,04,29,01,57,2.80
2011,04,29,01,58,2.80
2011,04,29,01,59,2.80
2011,04,29,02,00,2.80
2011,04,29,02,01,2.80
2011,04,29,02,02,2.80
2011,04,29,02,03,2.80
2011,04,29,02,04,2.80
2011,04,29,02,05,2.80
2011,04,29,02,06,2.80
2011,04,29,02,07,2.80
2011,04,29,02,08,2.80
2011,04,29,02,09,2.80
2011,04,29,02,10,2.80
2011,04,29,02,11,2.80
2011,04,29,02,12,2.80
2011,04,29,02,13,2.80
2011,04,29,02,14,2.90
2011,04,29,02,15,2.90
2011,04,29,02,16,2.90
2011,04,29,02,17,2.90
2011,04,29,02,18,2.90
2011,04,29,02,19,2.90
2011,04,29,02,20,2.90
2011,04,29,02,21,2.90
2011,04,29,02,22,2.90
2011,04,29,02,23,2.90
2011,04,29,02,24,2.90
2011,04,29,02,25,3.00
2011,04,29,02,26,3.00
2011,04,29,02,27,3.00
2011,04,29,02,28,3.00
2011,04,29,02,29,3.00
2011,04,29,02,30,3.00
2011,04,29,02,31,3.00
2011,04,29,02,32,3.00
2011,04,29,02,33,3.10
2011,04,29,02,34,3.10
2011,04,29,02,35,3.10
2011,04,29,02,36,3.10
2011,04,29,02,37,3.10
2011,04,29,02,38,3.10
2011,04,29,02,39,3.20
2011,04,29,02,40,3.20
2011,04,29,02,41,3.20
2011,04,29,02,42,3.20
2011,04,29,02,43,3.20
2011,04,29,02,44,3.20
2011,04,29,02,45,3.20
2011,04,29,02,46,3.20
2011,04,29,02,47,3.20
2011,04,29,02,48,3.20
2011,04,29,02,49,3.20
2011,04,29,02,50,3.20
2011,04,29,02,51,3.20
2011,04,29,02,52,3.20
2011,04,29,02,53,3.20
2011,04,29,02,54,3.20
2011,04,29,02,55,3.20
2011,04,29,02,56,3.20
2011,04,29,02,57,3.30
2011,04,29,02,58,3.30
2011,04,29,02,59,3.30
2011,04,29,03,00,3.30
2011,04,29,03,01,3.30
2011,04,29,03,02,3.30
2011,04,29,03,03,3.30
2011,04,29,03,04,3.30
2011,04,29,03,05,3.30
2011,04,29,03,06,3.30
2011,04,29,03,07,3.30
2011,04,29,03,08,3.40
2011,04,29,03,09,3.40
2011,04,29,03,10,3.40
2011,04,29,03,11,3.40
2011,04,29,03,12,3.40
2011,04,29,03,13,3.40
2011,04,29,03,14,3.40
2011,04,29,03,15,3.40
2011,04,29,03,16,3.40
2011,04,29,03,17,3.40
2011,04,29,03,18,3.40
2011,04,29,03,19,3.40
2011,04,29,03,20,3.40
2011,04,29,03,21,3.40
2011,04,29,03,22,3.40
2011,04,29,03,23,3.40
2011,04,29,03,24,3.40
2011,04,29,03,25,3.40
2011,04,29,03,26,3.40
2011,04,29,03,27,3.40
2011,04,29,03,28,3.40
2011,04,29,03,29,3.40
2011,04,29,03,30,3.40
2011,04,29,03,31,3.40
2011,04,29,03,32,3.40
2011,04,29,03,33,3.40
2011,04,29,03,34,3.40
2011,04,29,03,35,3.40
2011,04,29,03,36,3.40
2011,04,29,03,37,3.40
2011,04,29,03,38,3.40
2011,04,29,03,39,3.40
2011,04,29,03,40,3.40
2011,04,29,03,41,3.40
2011,04,29,03,42,3.40
2011,04,29,03,43,3.40
2011,04,29,03,44,3.40
2011,04,29,03,45,3.40
2011,04,29,03,46,3.40
2011,04,29,03,47,3.30
2011,04,29,03,48,3.30
2011,04,29,03,49,3.30
2011,04,29,03,50,3.30
2011,04,29,03,51,3.30
2011,04,29,03,52,3.30
2011,04,29,03,53,3.30
2011,04,29,03,54,3.30
2011,04,29,03,55,3.30
2011,04,29,03,56,3.30
2011,04,29,03,57,3.30
2011,04,29,03,58,3.30
2011,04,29,03,59,3.20
2011,04,29,04,00,3.20
2011,04,29,04,01,3.20
2011,04,29,04,02,3.20
2011,04,29,04,03,3.20
2011,04,29,04,04,3.20
2011,04,29,04,05,3.20
2011,04,29,04,06,3.20
2011,04,29,04,07,3.20
2011,04,29,04,08,3.20
2011,04,29,04,09,3.20
2011,04,29,04,10,3.20
2011,04,29,04,11,3.20
2011,04,29,04,12,3.20
2011,04,29,04,13,3.20
2011,04,29,04,14,3.20
2011,04,29,04,15,3.20
2011,04,29,04,16,3.20
2011,04,29,04,17,3.20
2011,04,29,04,18,3.10
2011,04,29,04,19,3.10
2011,04,29,04,20,3.10
2011,04,29,04,21,3.10
2011,04,29,04,22,3.10
2011,04,29,04,23,3.10
2011,04,29,04,24,3.10
2011,04,29,04,25,3.10
2011,04,29,04,26,3.10
2011,04,29,04,27,3.10
2011,04,29,04,28,3.10
2011,04,29,04,29,3.10
2011,04,29,04,30,3.00
2011,04,29,04,31,3.00
2011,04,29,04,32,3.00
2011,04,29,04,33,3.00
2011,04,29,04,34,3.00
2011,04,29,04,35,3.00
2011,04,29,04,36,3.00
2011,04,29,04,37,3.00
2011,04,29,04,38,3.10
2011,04,29,04,39,3.10
2011,04,29,04,40,3.10
2011,04,29,04,41,3.10
2011,04,29,04,42,3.10
2011,04,29,04,43,3.10
2011,04,29,04,44,3.10
2011,04,29,04,45,3.10
2011,04,29,04,46,3.10
2011,04,29,04,47,3.10
2011,04,29,04,48,3.10
2011,04,29,04,49,3.10
2011,04,29,04,50,3.10
2011,04,29,04,51,3.10
2011,04,29,04,52,3.10
2011,04,29,04,53,3.10
2011,04,29,04,54,3.10
2011,04,29,04,55,3.10
2011,04,29,04,56,3.10
2011,04,29,04,57,3.10
2011,04,29,04,58,3.10
2011,04,29,04,59,3.10
2011,04,29,05,00,3.10
2011,04,29,05,01,3.10
2011,04,29,05,02,3.10
2011,04,29,05,03,3.10
2011,04,29,05,04,3.10
2011,04,29,05,05,3.10
2011,04,29,05,06,3.10
2011,04,29,05,07,3.10
2011,04,29,05,08,3.10
2011,04,29,05,09,3.10
2011,04,29,05,10,3.10
2011,04,29,05,11,3.10
2011,04,29,05,12,3.00
2011,04,29,05,13,3.00
2011,04,29,05,14,3.00
2011,04,29,05,15,3.00
2011,04,29,05,16,3.00
2011,04,29,05,17,3.00
2011,04,29,05,18,3.00
2011,04,29,05,19,3.00
2011,04,29,05,20,3.00
2011,04,29,05,21,3.00
2011,04,29,05,22,3.00
2011,04,29,05,23,3.00
2011,04,29,05,24,3.00
2011,04,29,05,25,3.00
2011,04,29,05,26,3.00
2011,04,29,05,27,3.00
2011,04,29,05,28,3.00
2011,04,29,05,29,3.00
2011,04,29,05,30,3.00
2011,04,29,05,31,3.00
2011,04,29,05,32,2.90
2011,04,29,05,33,2.90
2011,04,29,05,34,2.90
2011,04,29,05,35,2.90
2011,04,29,05,36,2.90
2011,04,29,05,37,2.90
2011,04,29,05,38,2.90
2011,04,29,05,39,2.90
2011,04,29,05,40,2.90
2011,04,29,05,41,2.80
2011,04,29,05,42,2.80
2011,04,29,05,43,2.80
2011,04,29,05,44,2.80
2011,04,29,05,45,2.80
2011,04,29,05,46,2.70
2011,04,29,05,47,2.70
2011,04,29,05,48,2.70
2011,04,29,05,49,2.70
2011,04,29,05,50,2.70
2011,04,29,05,51,2.70
2011,04,29,05,52,2.60
2011,04,29,05,53,2.60
2011,04,29,05,54,2.60
2011,04,29,05,55,2.60
2011,04,29,05,56,2.50
2011,04,29,05,57,2.50
2011,04,29,05,58,2.50
2011,04,29,05,59,2.50
2011,04,29,06,00,2.40
2011,04,29,06,01,2.40
2011,04,29,06,02,2.40
2011,04,29,06,03,2.40
2011,04,29,06,04,2.40
2011,04,29,06,05,2.40
2011,04,29,06,06,2.40
2011,04,29,06,07,2.40
2011,04,29,06,08,2.30
2011,04,29,06,09,2.30
2011,04,29,06,10,2.30
2011,04,29,06,11,2.30
2011,04,29,06,12,2.30
2011,04,29,06,13,2.30
2011,04,29,06,14,2.20
2011,04,29,06,15,2.20
2011,04,29,06,16,2.20
2011,04,29,06,17,2.20
2011,04,29,06,18,2.20
2011,04,29,06,19,2.20
2011,04,29,06,20,2.20
2011,04,29,06,21,2.20
2011,04,29,06,22,2.20
2011,04,29,06,23,2.20
2011,04,29,06,24,2.10
2011,04,29,06,25,2.20
2011,04,29,06,26,2.10
2011,04,29,06,27,2.10
2011,04,29,06,28,2.10
2011,04,29,06,29,2.10
2011,04,29,06,30,2.10
2011,04,29,06,31,2.10
2011,04,29,06,32,2.10
2011,04,29,06,33,2.10
2011,04,29,06,34,2.10
2011,04,29,06,35,2.20
2011,04,29,06,36,2.20
2011,04,29,06,37,2.20
2011,04,29,06,38,2.20
2011,04,29,06,39,2.20
2011,04,29,06,40,2.20
2011,04,29,06,41,2.20
2011,04,29,06,42,2.20
2011,04,29,06,43,2.20
2011,04,29,06,44,2.20
2011,04,29,06,45,2.20
2011,04,29,06,46,2.20
2011,04,29,06,47,2.20
2011,04,29,06,48,2.20
2011,04,29,06,49,2.20
2011,04,29,06,50,2.20
2011,04,29,06,51,2.20
2011,04,29,06,52,2.20
2011,04,29,06,53,2.20
2011,04,29,06,54,2.20
2011,04,29,06,55,2.20
2011,04,29,06,56,2.20
2011,04,29,06,57,2.20
2011,04,29,06,58,2.20
2011,04,29,06,59,2.20
2011,04,29,07,00,2.20
2011,04,29,07,01,2.20
2011,04,29,07,02,2.20
2011,04,29,07,03,2.20
2011,04,29,07,04,2.20
2011,04,29,07,05,2.20
2011,04,29,07,06,2.20
2011,04,29,07,07,2.20
2011,04,29,07,08,2.20
2011,04,29,07,09,2.30
2011,04,29,07,10,2.30
2011,04,29,07,11,2.30
2011,04,29,07,12,2.30
2011,04,29,07,13,2.30
2011,04,29,07,14,2.30
2011,04,29,07,15,2.40
2011,04,29,07,16,2.40
2011,04,29,07,17,2.50
2011,04,29,07,18,2.60
2011,04,29,07,19,2.70
2011,04,29,07,20,2.80
2011,04,29,07,21,2.80
2011,04,29,07,22,2.80
2011,04,29,07,23,2.80
2011,04,29,07,24,2.80
2011,04,29,07,25,2.80
2011,04,29,07,26,3.30
2011,04,29,07,27,3.30
2011,04,29,07,28,3.50
2011,04,29,07,29,3.50
2011,04,29,07,30,3.70
2011,04,29,07,31,3.80
2011,04,29,07,32,3.90
2011,04,29,07,33,4.00
2011,04,29,07,34,4.10
2011,04,29,07,35,4.20
2011,04,29,07,36,4.30
2011,04,29,07,37,4.40
2011,04,29,07,38,4.50
2011,04,29,07,39,4.60
2011,04,29,07,40,4.70
2011,04,29,07,41,4.80
2011,04,29,07,42,4.90
2011,04,29,07,43,5.00
2011,04,29,07,44,5.20
2011,04,29,07,45,5.30
2011,04,29,07,46,5.40
2011,04,29,07,47,5.50
2011,04,29,07,48,5.70
2011,04,29,07,49,5.80
2011,04,29,07,50,5.80
2011,04,29,07,51,5.90
2011,04,29,07,52,6.10
2011,04,29,07,53,6.20
2011,04,29,07,54,6.30
2011,04,29,07,55,6.40
2011,04,29,07,56,6.50
2011,04,29,07,57,6.60
2011,04,29,07,58,6.60
2011,04,29,07,59,6.70
2011,04,29,08,00,6.80
2011,04,29,08,01,6.90
2011,04,29,08,02,7.00
2011,04,29,08,03,7.10
2011,04,29,08,04,7.10
2011,04,29,08,05,7.20
2011,04,29,08,06,7.30
2011,04,29,08,07,7.30
2011,04,29,08,08,7.30
2011,04,29,08,09,7.40
2011,04,29,08,10,7.40
2011,04,29,08,11,7.40
2011,04,29,08,12,7.50
2011,04,29,08,13,7.60
2011,04,29,08,14,7.60
2011,04,29,08,15,7.70
2011,04,29,08,16,7.80
2011,04,29,08,17,7.80
2011,04,29,08,18,7.90
2011,04,29,08,19,7.90
2011,04,29,08,20,7.80
2011,04,29,08,21,7.80
2011,04,29,08,22,7.80
2011,04,29,08,23,7.80
2011,04,29,08,24,7.80
2011,04,29,08,25,7.80
2011,04,29,08,26,7.80
2011,04,29,08,27,7.80
2011,04,29,08,28,7.80
2011,04,29,08,29,7.80
2011,04,29,08,30,7.90
2011,04,29,08,31,7.80
2011,04,29,08,32,7.80
2011,04,29,08,33,7.80
2011,04,29,08,34,7.90
2011,04,29,08,35,7.90
2011,04,29,08,36,8.00
2011,04,29,08,37,8.00
2011,04,29,08,38,7.90
2011,04,29,08,39,7.90
2011,04,29,08,40,7.90
2011,04,29,08,41,7.90
2011,04,29,08,42,7.90
2011,04,29,08,43,7.90
2011,04,29,08,44,7.90
2011,04,29,08,45,7.90
2011,04,29,08,46,8.00
2011,04,29,08,47,8.00
2011,04,29,08,48,8.00
2011,04,29,08,49,8.10
2011,04,29,08,50,8.10
2011,04,29,08,51,8.20
2011,04,29,08,52,8.20
2011,04,29,08,53,8.30
2011,04,29,08,54,8.30
2011,04,29,08,55,8.30
2011,04,29,08,56,8.40
2011,04,29,08,57,8.40
2011,04,29,08,58,8.40
2011,04,29,08,59,8.40
2011,04,29,09,00,8.50
2011,04,29,09,01,8.50
2011,04,29,09,02,8.50
2011,04,29,09,03,8.60
2011,04,29,09,04,8.60
2011,04,29,09,05,8.70
2011,04,29,09,06,8.80
2011,04,29,09,07,8.80
2011,04,29,09,08,8.90
2011,04,29,09,09,8.90
2011,04,29,09,10,8.90
2011,04,29,09,11,9.00
2011,04,29,09,12,9.10
2011,04,29,09,13,9.10
2011,04,29,09,14,9.10
2011,04,29,09,15,9.10
2011,04,29,09,16,9.20
2011,04,29,09,17,9.20
2011,04,29,09,18,9.20
2011,04,29,09,19,9.20
2011,04,29,09,20,9.20
2011,04,29,09,21,9.20
2011,04,29,09,22,9.30
2011,04,29,09,23,9.30
2011,04,29,09,24,9.30
2011,04,29,09,25,9.20
2011,04,29,09,26,9.20
2011,04,29,09,27,9.20
2011,04,29,09,28,9.20
2011,04,29,09,29,9.20
2011,04,29,09,30,9.20
2011,04,29,09,31,9.30
2011,04,29,09,32,9.30
2011,04,29,09,33,9.40
2011,04,29,09,34,9.40
2011,04,29,09,35,9.40
2011,04,29,09,36,9.40
2011,04,29,09,37,9.50
2011,04,29,09,38,9.50
2011,04,29,09,39,9.60
2011,04,29,09,40,9.60
2011,04,29,09,41,9.70
2011,04,29,09,42,9.70
2011,04,29,09,43,9.80
2011,04,29,09,44,9.90
2011,04,29,09,45,9.90
2011,04,29,09,46,9.80
2011,04,29,09,47,9.80
2011,04,29,09,48,9.70
2011,04,29,09,49,9.60
2011,04,29,09,50,9.60
2011,04,29,09,51,9.50
2011,04,29,09,52,9.50
2011,04,29,09,53,9.50
2011,04,29,09,54,9.50
2011,04,29,09,55,9.50
2011,04,29,09,56,9.60
2011,04,29,09,57,9.60
2011,04,29,09,58,9.60
2011,04,29,09,59,9.60
2011,04,29,10,00,9.60
2011,04,29,10,01,9.60
2011,04,29,10,02,9.70
2011,04,29,10,03,9.70
2011,04,29,10,04,9.70
2011,04,29,10,05,9.70
2011,04,29,10,06,9.70
2011,04,29,10,07,9.70
2011,04,29,10,08,9.70
2011,04,29,10,09,9.60
2011,04,29,10,10,9.60
2011,04,29,10,11,9.60
2011,04,29,10,12,9.60
2011,04,29,10,13,9.60
2011,04,29,10,14,9.60
2011,04,29,10,15,9.60
2011,04,29,10,16,9.60
2011,04,29,10,17,9.60
2011,04,29,10,18,9.60
2011,04,29,10,19,9.70
2011,04,29,10,20,9.80
2011,04,29,10,21,9.90
2011,04,29,10,22,10.00
2011,04,29,10,23,10.10
2011,04,29,10,24,10.10
2011,04,29,10,25,10.10
2011,04,29,10,26,10.20
2011,04,29,10,27,10.20
2011,04,29,10,28,10.20
2011,04,29,10,29,10.30
2011,04,29,10,30,10.30
2011,04,29,10,31,10.30
2011,04,29,10,32,10.30
2011,04,29,10,33,10.20
2011,04,29,10,34,10.10
2011,04,29,10,35,10.00
2011,04,29,10,36,9.90
2011,04,29,10,37,9.70
2011,04,29,10,38,9.60
2011,04,29,10,39,9.60
2011,04,29,10,40,9.60
2011,04,29,10,41,9.60
2011,04,29,10,42,9.70
2011,04,29,10,43,9.70
2011,04,29,10,44,9.70
2011,04,29,10,45,9.70
2011,04,29,10,46,9.70
2011,04,29,10,47,9.80
2011,04,29,10,48,9.90
2011,04,29,10,49,10.10
2011,04,29,10,50,10.20
2011,04,29,10,51,10.30
2011,04,29,10,52,10.30
2011,04,29,10,53,10.30
2011,04,29,10,54,10.20
2011,04,29,10,55,10.10
2011,04,29,10,56,10.10
2011,04,29,10,57,10.20
2011,04,29,10,58,10.20
2011,04,29,10,59,10.30
2011,04,29,11,00,10.30
2011,04,29,11,01,10.30
2011,04,29,11,02,10.30
2011,04,29,11,03,10.30
2011,04,29,11,04,10.30
2011,04,29,11,05,10.40
2011,04,29,11,06,10.40
2011,04,29,11,07,10.40
2011,04,29,11,08,10.50
2011,04,29,11,09,10.50
2011,04,29,11,10,10.50
2011,04,29,11,11,10.40
2011,04,29,11,12,10.30
2011,04,29,11,13,10.30
2011,04,29,11,14,10.40
2011,04,29,11,15,10.40
2011,04,29,11,16,10.40
2011,04,29,11,17,10.50
2011,04,29,11,18,10.50
2011,04,29,11,19,10.40
2011,04,29,11,20,10.40
2011,04,29,11,21,10.50
2011,04,29,11,22,10.50
2011,04,29,11,23,10.60
2011,04,29,11,24,10.70
2011,04,29,11,25,10.80
2011,04,29,11,26,10.90
2011,04,29,11,27,10.90
2011,04,29,11,28,10.90
2011,04,29,11,29,11.00
2011,04,29,11,30,11.00
2011,04,29,11,31,11.00
2011,04,29,11,32,11.00
2011,04,29,11,33,11.00
2011,04,29,11,34,11.10
2011,04,29,11,35,11.10
2011,04,29,11,36,11.10
2011,04,29,11,37,11.10
2011,04,29,11,38,11.10
2011,04,29,11,39,11.10
2011,04,29,11,40,11.00
2011,04,29,11,41,10.90
2011,04,29,11,42,10.80
2011,04,29,11,43,10.70
2011,04,29,11,44,10.60
2011,04,29,11,45,10.40
2011,04,29,11,46,10.40
2011,04,29,11,47,10.30
2011,04,29,11,48,10.20
2011,04,29,11,49,10.10
2011,04,29,11,50,10.10
2011,04,29,11,51,10.10
2011,04,29,11,52,10.00
2011,04,29,11,53,10.00
2011,04,29,11,54,10.00
2011,04,29,11,55,10.00
2011,04,29,11,56,9.90
2011,04,29,11,57,9.90
2011,04,29,11,58,9.90
2011,04,29,11,59,9.90
2011,04,29,12,00,9.90
2011,04,29,12,01,10.00
2011,04,29,12,02,10.00
2011,04,29,12,03,10.00
2011,04,29,12,04,10.10
2011,04,29,12,05,10.10
2011,04,29,12,06,10.10
2011,04,29,12,07,10.10
2011,04,29,12,08,10.10
2011,04,29,12,09,10.10
2011,04,29,12,10,10.00
2011,04,29,12,11,10.00
2011,04,29,12,12,10.00
2011,04,29,12,13,10.00
2011,04,29,12,14,10.00
2011,04,29,12,15,10.00
2011,04,29,12,16,10.10
2011,04,29,12,17,10.10
2011,04,29,12,18,10.10
2011,04,29,12,19,10.10
2011,04,29,12,20,10.10
2011,04,29,12,21,10.00
2011,04,29,12,22,10.00
2011,04,29,12,23,10.00
2011,04,29,12,24,10.00
2011,04,29,12,25,10.10
2011,04,29,12,26,10.10
2011,04,29,12,27,10.10
2011,04,29,12,28,10.10
2011,04,29,12,29,10.20
2011,04,29,12,30,10.20
2011,04,29,12,31,10.20
2011,04,29,12,32,10.10
2011,04,29,12,33,10.10
2011,04,29,12,34,10.10
2011,04,29,12,35,10.10
2011,04,29,12,36,10.10
2011,04,29,12,37,10.00
2011,04,29,12,38,10.00
2011,04,29,12,39,10.00
2011,04,29,12,40,10.00
2011,04,29,12,41,10.00
2011,04,29,12,42,10.00
2011,04,29,12,43,10.00
2011,04,29,12,44,10.00
2011,04,29,12,45,10.00
2011,04,29,12,46,10.10
2011,04,29,12,47,10.10
2011,04,29,12,48,10.10
2011,04,29,12,49,10.10
2011,04,29,12,50,10.20
2011,04,29,12,51,10.20
2011,04,29,12,52,10.20
2011,04,29,12,53,10.30
2011,04,29,12,54,10.40
2011,04,29,12,55,10.40
2011,04,29,12,56,10.40
2011,04,29,12,57,10.40
2011,04,29,12,58,10.50
2011,04,29,12,59,10.50
2011,04,29,13,00,10.50
2011,04,29,13,01,10.50
2011,04,29,13,02,10.60
2011,04,29,13,03,10.60
2011,04,29,13,04,10.60
2011,04,29,13,05,10.60
2011,04,29,13,06,10.60
2011,04,29,13,07,10.60
2011,04,29,13,08,10.60
2011,04,29,13,09,10.70
2011,04,29,13,10,10.70
2011,04,29,13,11,10.70
2011,04,29,13,12,10.70
2011,04,29,13,13,10.80
2011,04,29,13,14,10.80
2011,04,29,13,15,10.80
2011,04,29,13,16,10.90
2011,04,29,13,17,11.00
2011,04,29,13,18,11.10
2011,04,29,13,19,11.30
2011,04,29,13,20,11.40
2011,04,29,13,21,11.60
2011,04,29,13,22,11.70
2011,04,29,13,23,11.90
2011,04,29,13,24,12.00
2011,04,29,13,25,12.20
2011,04,29,13,26,12.20
2011,04,29,13,27,12.20
2011,04,29,13,28,12.20
2011,04,29,13,29,12.20
2011,04,29,13,30,12.20
2011,04,29,13,31,12.20
2011,04,29,13,32,12.30
2011,04,29,13,33,12.30
2011,04,29,13,34,12.30
2011,04,29,13,35,12.20
2011,04,29,13,36,12.30
2011,04,29,13,37,12.30
2011,04,29,13,38,12.30
2011,04,29,13,39,12.30
2011,04,29,13,40,12.30
2011,04,29,13,41,12.30
2011,04,29,13,42,12.20
2011,04,29,13,43,12.10
2011,04,29,13,44,12.00
2011,04,29,13,45,11.90
2011,04,29,13,46,11.90
2011,04,29,13,47,11.80
2011,04,29,13,48,11.80
2011,04,29,13,49,11.70
2011,04,29,13,50,11.60
2011,04,29,13,51,11.60
2011,04,29,13,52,11.50
2011,04,29,13,53,11.40
2011,04,29,13,54,11.40
2011,04,29,13,55,11.40
2011,04,29,13,56,11.40
2011,04,29,13,57,11.40
2011,04,29,13,58,11.40
2011,04,29,13,59,11.40
2011,04,29,14,00,11.30
2011,04,29,14,01,11.30
2011,04,29,14,02,11.30
2011,04,29,14,03,11.30
2011,04,29,14,04,11.30
2011,04,29,14,05,11.30
2011,04,29,14,06,11.30
2011,04,29,14,07,11.30
2011,04,29,14,08,11.30
2011,04,29,14,09,11.40
2011,04,29,14,10,11.40
2011,04,29,14,11,11.40
2011,04,29,14,12,11.50
2011,04,29,14,13,11.50
2011,04,29,14,14,11.50
2011,04,29,14,15,11.60
2011,04,29,14,16,11.60
2011,04,29,14,17,11.60
2011,04,29,14,18,11.50
2011,04,29,14,19,11.40
2011,04,29,14,20,11.40
2011,04,29,14,21,11.40
2011,04,29,14,22,11.40
2011,04,29,14,23,11.50
2011,04,29,14,24,11.50
2011,04,29,14,25,11.50
2011,04,29,14,26,11.50
2011,04,29,14,27,11.50
2011,04,29,14,28,11.40
2011,04,29,14,29,11.40
2011,04,29,14,30,11.40
2011,04,29,14,31,11.50
2011,04,29,14,32,11.60
2011,04,29,14,33,11.60
2011,04,29,14,34,11.60
2011,04,29,14,35,11.70
2011,04,29,14,36,11.90
2011,04,29,14,37,12.00
2011,04,29,14,38,12.00
2011,04,29,14,39,12.00
2011,04,29,14,40,12.00
2011,04,29,14,41,12.00
2011,04,29,14,42,12.00
2011,04,29,14,43,12.10
2011,04,29,14,44,12.10
2011,04,29,14,45,12.10
2011,04,29,14,46,12.10
2011,04,29,14,47,12.20
2011,04,29,14,48,12.30
2011,04,29,14,49,12.40
2011,04,29,14,50,12.50
2011,04,29,14,51,12.50
2011,04,29,14,52,12.50
2011,04,29,14,53,12.50
2011,04,29,14,54,12.40
2011,04,29,14,55,12.50
2011,04,29,14,56,12.50
2011,04,29,14,57,12.60
2011,04,29,14,58,12.60
2011,04,29,14,59,12.60
2011,04,29,15,00,12.70
2011,04,29,15,01,12.70
2011,04,29,15,02,12.70
2011,04,29,15,03,12.70
2011,04,29,15,04,12.80
2011,04,29,15,05,12.90
2011,04,29,15,06,12.90
2011,04,29,15,07,13.00
2011,04,29,15,08,13.00
2011,04,29,15,09,12.90
2011,04,29,15,10,12.90
2011,04,29,15,11,12.80
2011,04,29,15,12,12.80
2011,04,29,15,13,12.80
2011,04,29,15,14,12.90
2011,04,29,15,15,13.00
2011,04,29,15,16,13.10
2011,04,29,15,17,13.20
2011,04,29,15,18,13.30
2011,04,29,15,19,13.30
2011,04,29,15,20,13.30
2011,04,29,15,21,13.30
2011,04,29,15,22,13.30
2011,04,29,15,23,13.30
2011,04,29,15,24,13.30
2011,04,29,15,25,13.30
2011,04,29,15,26,13.30
2011,04,29,15,27,13.30
2011,04,29,15,28,13.30
2011,04,29,15,29,13.30
2011,04,29,15,30,13.30
2011,04,29,15,31,13.40
2011,04,29,15,32,13.40
2011,04,29,15,33,13.40
2011,04,29,15,34,13.40
2011,04,29,15,35,13.30
2011,04,29,15,36,13.30
2011,04,29,15,37,13.30
2011,04,29,15,38,13.40
2011,04,29,15,39,13.50
2011,04,29,15,40,13.60
2011,04,29,15,41,13.70
2011,04,29,15,42,13.70
2011,04,29,15,43,13.70
2011,04,29,15,44,13.80
2011,04,29,15,45,13.80
2011,04,29,15,46,13.80
2011,04,29,15,47,13.70
2011,04,29,15,48,13.70
2011,04,29,15,49,13.70
2011,04,29,15,50,13.70
2011,04,29,15,51,13.60
2011,04,29,15,52,13.50
2011,04,29,15,53,13.30
2011,04,29,15,54,13.30
2011,04,29,15,55,13.20
2011,04,29,15,56,13.30
2011,04,29,15,57,13.30
2011,04,29,15,58,13.30
2011,04,29,15,59,13.40
2011,04,29,16,00,13.40
2011,04,29,16,01,13.50
2011,04,29,16,02,13.60
2011,04,29,16,03,13.50
2011,04,29,16,04,13.50
2011,04,29,16,05,13.40
2011,04,29,16,06,13.30
2011,04,29,16,07,13.30
2011,04,29,16,08,13.30
2011,04,29,16,09,13.30
2011,04,29,16,10,13.20
2011,04,29,16,11,13.20
2011,04,29,16,12,13.20
2011,04,29,16,13,13.10
2011,04,29,16,14,13.00
2011,04,29,16,15,13.00
2011,04,29,16,16,13.00
2011,04,29,16,17,13.00
2011,04,29,16,18,13.10
2011,04,29,16,19,13.20
2011,04,29,16,20,13.30
2011,04,29,16,21,13.30
2011,04,29,16,22,13.40
2011,04,29,16,23,13.40
2011,04,29,16,24,13.50
2011,04,29,16,25,13.50
2011,04,29,16,26,13.60
2011,04,29,16,27,13.60
2011,04,29,16,28,13.70
2011,04,29,16,29,13.70
2011,04,29,16,30,13.70
2011,04,29,16,31,13.70
2011,04,29,16,32,13.60
2011,04,29,16,33,13.50
2011,04,29,16,34,13.40
2011,04,29,16,35,13.40
2011,04,29,16,36,13.30
2011,04,29,16,37,13.30
2011,04,29,16,38,13.30
2011,04,29,16,39,13.30
2011,04,29,16,40,13.20
2011,04,29,16,41,13.20
2011,04,29,16,42,13.20
2011,04,29,16,43,13.20
2011,04,29,16,44,13.10
2011,04,29,16,45,13.10
2011,04,29,16,46,13.10
2011,04,29,16,47,13.00
2011,04,29,16,48,12.90
2011,04,29,16,49,12.90
2011,04,29,16,50,13.00
2011,04,29,16,51,13.00
2011,04,29,16,52,13.00
2011,04,29,16,53,13.00
2011,04,29,16,54,13.00
2011,04,29,16,55,12.90
2011,04,29,16,56,12.80
2011,04,29,16,57,12.80
2011,04,29,16,58,12.80
2011,04,29,16,59,12.80
2011,04,29,17,00,12.80
2011,04,29,17,01,12.80
2011,04,29,17,02,12.70
2011,04,29,17,03,12.70
2011,04,29,17,04,12.60
2011,04,29,17,05,12.60
2011,04,29,17,06,12.60
2011,04,29,17,07,12.60
2011,04,29,17,08,12.50
2011,04,29,17,09,12.50
2011,04,29,17,10,12.50
2011,04,29,17,11,12.40
2011,04,29,17,12,12.40
2011,04,29,17,13,12.50
2011,04,29,17,14,12.50
2011,04,29,17,15,12.50
2011,04,29,17,16,12.50
2011,04,29,17,17,12.50
2011,04,29,17,18,12.50
2011,04,29,17,19,12.50
2011,04,29,17,20,12.40
2011,04,29,17,21,12.40
2011,04,29,17,22,12.40
2011,04,29,17,23,12.40
2011,04,29,17,24,12.30
2011,04,29,17,25,12.30
2011,04,29,17,26,12.30
2011,04,29,17,27,12.30
2011,04,29,17,28,12.30
2011,04,29,17,29,12.30
2011,04,29,17,30,12.30
2011,04,29,17,31,12.30
2011,04,29,17,32,12.30
2011,04,29,17,33,12.30
2011,04,29,17,34,12.30
2011,04,29,17,35,12.30
2011,04,29,17,36,12.30
2011,04,29,17,37,12.30
2011,04,29,17,38,12.20
2011,04,29,17,39,12.20
2011,04,29,17,40,12.20
2011,04,29,17,41,12.20
2011,04,29,17,42,12.10
2011,04,29,17,43,12.10
2011,04,29,17,44,12.10
2011,04,29,17,45,12.10
2011,04,29,17,46,12.10
2011,04,29,17,47,12.10